Regional Weather Roundup
Issued by NWS

Home | Current Version | Previous Version | Text Only | Print | Product List | Glossary Off
Versions: 1 2 3 4 5 6 7 8 9 10 11 12 13 14 15 16 17 18 19 20 21 22 23 24 25 26 27 28 29 30 31 32 33 34 35 36 37 38 39 40 41 42 43 44 45 46 47 48 49 50

576
ASUS43 KLMK 201210
RWRKY
KENTUCKY REGIONAL WEATHER ROUNDUP
NATIONAL WEATHER SERVICE LOUISVILLE KY
800 AM EDT THU JUL 20 2017

NOTE "FAIR" INDICATES FEW OR NO CLOUDS BELOW 12,000 FEET
WITH NO SIGNIFICANT WEATHER AND/OR OBSTRUCTIONS TO VISIBILITY.

KYZ001>023-026-027-061>063-070>075-201300-
WESTERN AND SOUTH CENTRAL KENTUCKY

CITY           SKY/WX    TMP DP  RH WIND       PRES   REMARKS
PADUCAH        SUNNY     77  72  84 SW5       30.08R HAZE
HENDERSON      SUNNY     74  72  93 CALM      30.10R
OWENSBORO      MOSUNNY   78  74  87 CALM      30.11R
HOPKINSVILLE   SUNNY     76  73  91 SW5       30.11R
BOWLING GREEN  SUNNY     77  74  90 SW3       30.11R
GLASGOW        SUNNY     73  73 100 CALM      30.13R FOG
$$

KYZ024-025-028>034-038-045-046-053-201300-
NORTH CENTRAL KENTUCKY

CITY           SKY/WX    TMP DP  RH WIND       PRES   REMARKS
LOUISVILLE/SDF PTSUNNY   77  72  84 SW3       30.10R
LOUISVILLE/LOU MOSUNNY   76  73  91 CALM      30.11R
FORT KNOX      SUNNY     73  71  93 CALM      30.10R
$$

KYZ035>037-039>044-047>052-055>060-089>105-201300-
NORTHEAST KENTUCKY

CITY           SKY/WX    TMP DP  RH WIND       PRES   REMARKS
LEXINGTON      SUNNY     72  67  84 CALM      30.13R
COVINGTON      PTSUNNY   73  72  96 SW3       30.12R
FRANKFORT      MOSUNNY   74  68  81 CALM      30.11R
$$

KYZ054-064>069-076>088-106>120-201300-
SOUTHEAST KENTUCKY

CITY           SKY/WX    TMP DP  RH WIND       PRES   REMARKS
JACKSON        SUNNY     72  68  87 CALM      30.14R
LONDON         SUNNY     70  65  84 CALM      30.15R
SOMERSET       SUNNY     70  70 100 CALM      30.15R
MIDDLESBORO    MOSUNNY   65  65 100 CALM      30.16R FOG
MONTICELLO     SUNNY     71  69  93 MISG      30.15R
$$





USA.gov is the U.S. government's official web portal to all federal, state and local government web resources and services.